[[{"header":{"parameterUnit":"m.s-1","parameterCategory":1,"la1":30.2991,"la2":30.254,"lo1":-89.0895,"lo2":-89.0444,"dy":0.0017,"dx":0.0017,"nx":28,"ny":28,"refTime":"2024-07-10T09:00:00:Z","depth":0,"parameterNumber":2,"parameterNumberName":"U-component_of_WINDS"},"data":[0,0,0,0,0,0,0,0,0,0,0,0,0,0,0,0,0,0,0,0,0,0,0,0,0,0,0,0,0,0,0,0,0,0,0,0,0,0,0,0,0,0,0,0,0,0,0,0,0,0,0,0,0,0,0,0,0,0,0.6954,0.6954,0,0.6972,0.6972,0.6973,0.6914,0.6912,0.691,0.6908,0.6931,0.6933,0.6936,0,0,0,0,0,0,0,0,0,0,0,0,0,0.6873,0.6875,0.6954,0.6954,0.6955,0.6972,0.6972,0.6973,0.6914,0.6912,0.6909,0.6907,0.693,0.6933,0.6936,0,0,0,0,0,0,0,0,0,0,0,0,0,0.6902,0.6876,0.6954,0.6927,0.6925,0.6972,0.6972,0.6973,0.6914,0.6912,0.6909,0.6906,0.693,0.6933,0.6936,0.7011,0,0,0.6947,0.6948,0,0,0,0,0,0,0,0,0.69,0.6905,0.6931,0.6929,0.6927,0.6938,0.6952,0.6986,0.6915,0.6919,0.6908,0.6905,0.6936,0.6939,0.6948,0.7013,0.7014,0.6947,0.6949,0.6951,0.6952,0,0,0,0,0,0,0,0.6898,0.6904,0.6961,0.6931,0.6929,0.6916,0.6917,0.6958,0.6942,0.6918,0.6914,0.6916,0.6934,0.6945,0.6948,0.7014,0.6947,0.695,0.6952,0.6953,0.7141,0.7144,0,0,0,0,0,0,0.6899,0.6903,0.6961,0.6962,0.6906,0.6919,0.6921,0.6937,0.6942,0.694,0.6919,0.6914,0.694,0.6944,0.6949,0.7037,0.6951,0.6954,0.6956,0.7139,0.7142,0.7145,0,0,0,0,0,0,0.6898,0.6905,0.696,0.6931,0.6937,0.6924,0.6943,0.6939,0.6949,0.6942,0.6939,0.6932,0.6938,0.6944,0.6996,0.7037,0.6955,0.6958,0.7135,0.714,0.7144,0.7214,0,0,0,0,0,0,0.6896,0.6905,0.6932,0.6932,0.6939,0.7006,0.6945,0.6941,0.6955,0.6948,0.6954,0.6952,0.6937,0.6991,0.7,0.704,0.6961,0.7131,0.7137,0.7142,0.7208,0.7221,0.7231,0,0,0,0,0,0.6893,0.6952,0.6934,0.6941,0.6972,0.7008,0.7012,0.6992,0.6958,0.6986,0.6982,0.6952,0.7031,0.6997,0.7006,0.7048,0.7129,0.7135,0.7142,0.7203,0.7218,0.7231,0,0,0,0,0,0,0.6959,0.6952,0.6931,0.6992,0.7001,0.6998,0.7033,0.7008,0.7028,0.7022,0.6996,0.6998,0.7055,0.7057,0.7019,0.7122,0.7074,0.7083,0.7118,0.7132,0.7144,0.7142,0.6964,0,0,0,0,0,0.698,0.7009,0.7001,0.7056,0.7061,0.7047,0.7062,0.7045,0.7054,0.7058,0.7057,0.7068,0.7095,0.7114,0.7139,0.7208,0.7209,0.7242,0.7254,0.7263,0.7271,0.7308,0.7323,0.7167,0.7167,0.7167,0,0,0.7025,0.7025,0.7045,0.7069,0.7074,0.7105,0.705,0.7086,0.7109,0.7064,0.7112,0.7112,0.7123,0.7185,0.7212,0.7188,0.7314,0.7271,0.7279,0.7282,0.7316,0.7331,0.7344,0.7171,0.7171,0.717,0,0,0.7123,0.7125,0.717,0.7177,0.7185,0.7174,0.7186,0.7187,0.7184,0.7233,0.7199,0.7228,0.7275,0.7284,0.7295,0.7397,0.7371,0.7406,0.7466,0.7502,0.7515,0.7525,0.7562,0.7575,0.7414,0.7414,0.7414,0,0.7178,0.7222,0.7198,0.7235,0.7247,0.7206,0.7253,0.7261,0.7277,0.7287,0.726,0.7319,0.7323,0.7386,0.7411,0.7421,0.7434,0.7405,0.7515,0.7525,0.7535,0.7569,0.7583,0.7418,0.7418,0.7417,0.7417,0,0.729,0.7321,0.7357,0.7372,0.7389,0.7431,0.7414,0.7434,0.7416,0.7409,0.746,0.7464,0.7488,0.7502,0.7486,0.7563,0.7548,0.7518,0.747,0.7554,0.7586,0.7599,0.7424,0.7423,0.7421,0.742,0,0,0.7429,0.743,0.7444,0.745,0.7456,0.7481,0.7522,0.7544,0.7562,0.7575,0.761,0.7651,0.7623,0.7636,0.762,0.7652,0.7733,0.7618,0.7618,0.7639,0.7819,0.7841,0.7857,0.7715,0.7718,0.772,0.7818,0,0.7525,0.7593,0.7572,0.7641,0.767,0.7632,0.7668,0.7677,0.7672,0.7697,0.7692,0.7721,0.7683,0.769,0.772,0.7717,0.7768,0.7709,0.7748,0.775,0.7746,0.7873,0.7897,0.7989,0.783,0.7832,0.7834,0,0.7646,0.7662,0.7733,0.7735,0.7746,0.7778,0.7798,0.7822,0.7832,0.7826,0.784,0.7818,0.7859,0.7811,0.7869,0.7829,0.7844,0.7844,0.7848,0.785,0.7797,0.788,0.8018,0.8032,0.7853,0.7852,0.785,0,0.774,0.778,0.7828,0.7835,0.7837,0.7861,0.7864,0.787,0.7885,0.7903,0.7913,0.7936,0.7949,0.7968,0.7953,0.7919,0.8013,0.7964,0.801,0.8011,0.8031,0.803,0.8175,0.8041,0.8041,0.8041,0.8041,0,0.7849,0.7894,0.787,0.79,0.795,0.7927,0.7977,0.7976,0.7982,0.8012,0.7981,0.801,0.7988,0.8016,0.8005,0.8054,0.806,0.8058,0.8054,0.806,0.8061,0.8069,0.8063,0.8045,0.8044,0.8043,0.8042,0,0.7963,0.7948,0.7998,0.7996,0.7997,0.8034,0.8033,0.8061,0.8054,0.8092,0.81,0.8089,0.812,0.8107,0.814,0.8132,0.8196,0.8184,0.8192,0.8189,0.8236,0.8232,0.8391,0.8411,0.8265,0.8267,0.8268,0,0.8033,0.8067,0.8068,0.8085,0.8089,0.8117,0.8132,0.8111,0.8129,0.8142,0.8169,0.8197,0.8218,0.8269,0.8265,0.829,0.8278,0.8332,0.8282,0.8287,0.8279,0.8277,0.8281,0.8343,0.8344,0.8346,0.8347,0,0.8159,0.815,0.8172,0.8193,0.8211,0.8226,0.8239,0.8255,0.8235,0.8256,0.8286,0.8302,0.8335,0.8364,0.8386,0.839,0.8366,0.8363,0.8375,0.8381,0.8385,0.8384,0.822,0.8359,0.8358,0.8357,0.8356,0.8356,0.8253,0.8281,0.8287,0.8313,0.832,0.8333,0.8359,0.8355,0.8379,0.8403,0.839,0.8426,0.8435,0.8462,0.847,0.8498,0.8477,0.8494,0.8499,0.8504,0.851,0.838,0.8502,0.8502,0.8501,0.8501,0.8501,0,0.8378,0.8379,0.8404,0.8421,0.8442,0.8416,0.8429,0.8449,0.848,0.849,0.8511,0.8546,0.8574,0.8572,0.8598,0.8621,0.861,0.8628,0.8626,0.8628,0.8527,0.8514,0.8636,0.8636,0.8636,0.8636,0.8636,0.8636,0.8445,0.8492,0.8484,0.8534,0.8536,0.8569,0.8579,0.8591,0.8599,0.8639,0.8661,0.8659,0.8665,0.8691,0.8715,0.8714,0.8725,0.8747,0.8742,0.8648,0.8635,0.8622,0.861,0.875,0.875,0.8841,0.8841,0.8842]},{"header":{"parameterUnit":"m.s-1","parameterCategory":1,"la1":30.2991,"la2":30.254,"lo1":-89.0895,"lo2":-89.0444,"dy":0.0017,"dx":0.0017,"nx":28,"ny":28,"refTime":"2024-07-10T09:00:00:Z","depth":0,"parameterNumber":3,"parameterNumberName":"V-component_of_WINDS"},"data":[0,0,0,0,0,0,0,0,0,0,0,0,0,0,0,0,0,0,0,0,0,0,0,0,0,0,0,0,0,0,0,0,0,0,0,0,0,0,0,0,0,0,0,0,0,0,0,0,0,0,0,0,0,0,0,0,0,0,-1.3425,-1.3426,0,-1.3519,-1.352,-1.3521,-1.3583,-1.3584,-1.3584,-1.3585,-1.3679,-1.3681,-1.3683,0,0,0,0,0,0,0,0,0,0,0,0,0,-1.3296,-1.3298,-1.3425,-1.3426,-1.3427,-1.3519,-1.352,-1.3521,-1.3583,-1.3584,-1.3584,-1.3585,-1.3678,-1.368,-1.3683,0,0,0,0,0,0,0,0,0,0,0,0,0,-1.3367,-1.3299,-1.3424,-1.3469,-1.3474,-1.3519,-1.352,-1.3522,-1.3583,-1.3584,-1.3585,-1.3585,-1.3677,-1.368,-1.3683,-1.369,0,0,-1.3693,-1.3694,0,0,0,0,0,0,0,0,-1.3363,-1.3372,-1.3461,-1.3466,-1.3472,-1.354,-1.351,-1.3578,-1.3583,-1.3542,-1.3585,-1.3585,-1.3632,-1.3639,-1.3655,-1.3695,-1.3699,-1.3693,-1.3695,-1.3697,-1.3697,0,0,0,0,0,0,0,-1.3358,-1.3368,-1.3462,-1.3462,-1.3469,-1.3484,-1.3495,-1.3523,-1.3582,-1.3545,-1.355,-1.3561,-1.3635,-1.3652,-1.3658,-1.37,-1.3693,-1.3696,-1.3698,-1.3699,-1.3752,-1.3751,0,0,0,0,0,0,-1.3347,-1.3364,-1.3459,-1.3465,-1.3418,-1.3486,-1.3498,-1.3517,-1.3582,-1.3592,-1.356,-1.3563,-1.3646,-1.3654,-1.3661,-1.3675,-1.3697,-1.37,-1.3701,-1.3752,-1.3751,-1.3751,0,0,0,0,0,0,-1.3344,-1.3354,-1.3455,-1.3416,-1.343,-1.3487,-1.3509,-1.3519,-1.3536,-1.3593,-1.3604,-1.3567,-1.3647,-1.3657,-1.3683,-1.3679,-1.3701,-1.3704,-1.3753,-1.3752,-1.3751,-1.3702,0,0,0,0,0,0,-1.334,-1.3353,-1.3357,-1.3415,-1.3431,-1.3476,-1.3509,-1.352,-1.3542,-1.3547,-1.3602,-1.3612,-1.3648,-1.3678,-1.3686,-1.3684,-1.3706,-1.3753,-1.3752,-1.3751,-1.3704,-1.3699,-1.3695,0,0,0,0,0,-1.3335,-1.3338,-1.3357,-1.3368,-1.3437,-1.3476,-1.3485,-1.3527,-1.3541,-1.3545,-1.3582,-1.361,-1.3678,-1.368,-1.369,-1.3689,-1.3754,-1.3753,-1.3752,-1.3706,-1.37,-1.3696,0,0,0,0,0,0,-1.3277,-1.3347,-1.3368,-1.339,-1.3427,-1.3486,-1.3493,-1.352,-1.3552,-1.3556,-1.3606,-1.3618,-1.364,-1.3666,-1.3668,-1.3699,-1.3719,-1.372,-1.3681,-1.3676,-1.3672,-1.3666,-1.3709,0,0,0,0,0,-1.3266,-1.3292,-1.3352,-1.3366,-1.3383,-1.3434,-1.3453,-1.3482,-1.3522,-1.3537,-1.3576,-1.3612,-1.3642,-1.366,-1.3691,-1.3708,-1.3721,-1.3711,-1.3707,-1.3703,-1.3704,-1.3716,-1.3713,-1.3747,-1.3747,-1.3747,0,0,-1.3246,-1.3287,-1.33,-1.3355,-1.3387,-1.3412,-1.3447,-1.3472,-1.3491,-1.3541,-1.3569,-1.3598,-1.3642,-1.3664,-1.3676,-1.3687,-1.3697,-1.3702,-1.3698,-1.3701,-1.3714,-1.3711,-1.3708,-1.3746,-1.3747,-1.3747,0,0,-1.3221,-1.3254,-1.3271,-1.3302,-1.335,-1.3384,-1.3388,-1.3443,-1.3465,-1.3494,-1.3532,-1.3555,-1.3605,-1.3636,-1.3657,-1.3645,-1.3672,-1.3653,-1.3631,-1.3642,-1.364,-1.3637,-1.3634,-1.3632,-1.3653,-1.3653,-1.3653,0,-1.3189,-1.323,-1.3275,-1.3299,-1.3322,-1.3369,-1.3386,-1.3413,-1.3468,-1.3483,-1.3495,-1.356,-1.3593,-1.3623,-1.362,-1.3636,-1.3642,-1.3647,-1.3636,-1.3635,-1.3633,-1.3631,-1.3629,-1.365,-1.365,-1.3651,-1.3651,0,-1.3189,-1.3216,-1.3223,-1.3276,-1.33,-1.332,-1.3369,-1.3387,-1.3415,-1.3447,-1.3477,-1.3518,-1.3558,-1.3567,-1.3593,-1.3601,-1.3607,-1.3627,-1.3648,-1.3627,-1.3625,-1.3625,-1.3647,-1.3647,-1.3648,-1.3649,0,0,-1.3131,-1.3209,-1.3211,-1.3237,-1.3293,-1.3315,-1.3337,-1.3377,-1.3393,-1.3428,-1.3448,-1.349,-1.3509,-1.3534,-1.3564,-1.3574,-1.3563,-1.3593,-1.3595,-1.3587,-1.3575,-1.3561,-1.3559,-1.3581,-1.3581,-1.3581,-1.3572,0,-1.3116,-1.3159,-1.3201,-1.3228,-1.3255,-1.33,-1.3319,-1.3355,-1.3386,-1.3413,-1.3447,-1.3476,-1.3498,-1.3514,-1.3525,-1.3561,-1.3561,-1.3562,-1.36,-1.3601,-1.3589,-1.3558,-1.3543,-1.3533,-1.3572,-1.3572,-1.3572,0,-1.3104,-1.314,-1.317,-1.3225,-1.3238,-1.3255,-1.3296,-1.332,-1.3362,-1.3384,-1.3412,-1.3444,-1.347,-1.3487,-1.3523,-1.3522,-1.354,-1.356,-1.3561,-1.3567,-1.3586,-1.3565,-1.3531,-1.353,-1.3571,-1.3571,-1.3571,0,-1.3061,-1.3116,-1.3142,-1.3162,-1.3226,-1.3237,-1.3264,-1.3307,-1.3329,-1.3364,-1.3379,-1.3416,-1.3436,-1.3464,-1.3505,-1.3514,-1.3537,-1.3557,-1.3556,-1.3555,-1.356,-1.3559,-1.353,-1.3569,-1.3569,-1.3569,-1.3569,0,-1.3041,-1.3058,-1.3123,-1.3139,-1.316,-1.3208,-1.3227,-1.3258,-1.3296,-1.3319,-1.3358,-1.3379,-1.3432,-1.3458,-1.349,-1.3516,-1.3524,-1.3543,-1.3551,-1.354,-1.3538,-1.3553,-1.3555,-1.3568,-1.3568,-1.3568,-1.3568,0,-1.2996,-1.304,-1.3072,-1.3131,-1.3146,-1.3158,-1.3209,-1.3226,-1.3259,-1.3287,-1.3297,-1.3349,-1.3382,-1.3426,-1.3472,-1.3494,-1.3516,-1.3528,-1.3502,-1.3507,-1.3504,-1.3504,-1.3485,-1.3485,-1.3522,-1.3521,-1.3521,0,-1.2981,-1.2996,-1.3056,-1.3075,-1.3101,-1.313,-1.3153,-1.32,-1.3222,-1.3272,-1.3283,-1.332,-1.3352,-1.3403,-1.3444,-1.348,-1.3495,-1.3485,-1.3501,-1.3489,-1.3497,-1.3496,-1.3498,-1.3482,-1.3481,-1.3481,-1.348,0,-1.295,-1.2971,-1.3003,-1.3043,-1.307,-1.3103,-1.3138,-1.315,-1.3205,-1.3228,-1.3263,-1.3288,-1.3336,-1.3372,-1.3414,-1.3441,-1.347,-1.3475,-1.3477,-1.3466,-1.3451,-1.3461,-1.3493,-1.3476,-1.3476,-1.3477,-1.3477,-1.3477,-1.2921,-1.2937,-1.2982,-1.3016,-1.3048,-1.308,-1.3099,-1.3135,-1.3166,-1.321,-1.3235,-1.327,-1.3312,-1.3371,-1.3398,-1.3425,-1.3436,-1.3438,-1.3439,-1.3439,-1.3436,-1.3446,-1.3432,-1.3433,-1.3433,-1.3433,-1.3433,0,-1.2893,-1.2925,-1.2956,-1.3004,-1.3031,-1.3057,-1.3097,-1.3118,-1.3148,-1.3185,-1.3216,-1.3257,-1.3292,-1.3337,-1.3375,-1.3389,-1.3403,-1.3397,-1.3398,-1.3404,-1.3424,-1.3419,-1.3385,-1.3385,-1.3385,-1.3385,-1.3385,-1.3385,-1.2882,-1.2911,-1.2937,-1.2982,-1.3013,-1.3048,-1.3069,-1.3099,-1.3129,-1.3173,-1.3203,-1.3232,-1.3273,-1.3314,-1.3348,-1.336,-1.3373,-1.3364,-1.338,-1.3398,-1.3402,-1.3406,-1.3402,-1.3366,-1.3365,-1.3358,-1.3358,-1.3358]}]]